Location: *
(51.0333°S, 178.4667°E)
Time: 02:54:57
(UTC+00:00)

Cosmos 2219 - Pass Details

Date: 15 November 2019
Orbit: 835 x 858 km, 71.1° (Epoch: 10 December)

Event Time Altitude Azimuth Distance (km) Brightness Sun altitude
Rises 08:34:54 0° 330° (NNW) 3,409 6.2 -8.4°
Reaches altitude 10° 08:37:20 10° 329° (NNW) 2,484 5.5 -8.7°
Maximum altitude 08:43:04 84° 241° (WSW) 876 3.4 -9.3°
Drops below altitude 10° 08:48:54 10° 151° (SSE) 2,526 5.9 -9.9°
Sets 08:51:24 0° 150° (SSE) 3,470 6.6 -10.2°
